Theta_e
344 344 344 344 344 345 346 340 343 342 342 341 342 344 344 345 345 342 342 342 340 340 342 340 338 343 343 344 344 344 344 344 347 346 344 344 343 342 343 344 344 344 344
344 344 345 344 344 345 346 344 340 343 343 341 344 344 344 344 345 345 345 344 343 345 343 341 340 345 344 343 343 343 343 344 347 345 345 342 344 344 344 344 343 343 344
341 342 344 345 344 343 345 346 340 340 339 342 342 344 343 344 344 344 342 342 343 346 343 342 341 343 344 344 343 344 343 343 343 345 348 345 343 343 343 343 344 344 344
341 341 343 342 341 345 345 346 345 340 340 341 341 341 342 342 343 342 343 342 343 341 343 342 342 342 343 342 344 344 343 342 342 342 344 344 344 344 344 344 344 345 345
342 341 340 340 340 341 343 344 345 345 343 342 343 344 341 339 344 342 343 344 341 339 342 342 343 342 342 344 344 345 344 344 344 343 344 344 344 344 343 343 344 345 345
341 341 341 342 342 342 343 342 343 343 341 344 343 344 344 341 338 339 343 343 342 341 341 340 342 343 341 341 343 343 344 343 343 343 344 347 343 342 345 344 342 343 343
343 342 342 343 344 344 345 345 344 343 341 342 343 343 344 344 343 340 340 342 341 341 343 343 343 345 342 342 342 344 345 344 344 345 342 344 344 341 342 344 342 342 343
344 344 345 345 345 346 346 346 345 345 343 343 342 341 343 343 344 345 342 343 345 341 343 345 346 345 346 344 343 342 342 344 345 345 345 345 343 343 341 342 343 343 343
336 337 337 339 339 339 341 341 342 341 340 342 341 339 342 342 344 345 344 342 343 345 345 345 345 344 345 346 347 346 343 343 345 345 346 345 345 344 342 340 342 343 343
333 334 332 332 331 332 333 332 331 333 339 339 340 340 339 341 344 342 340 341 344 345 345 344 344 344 344 346 345 346 346 344 343 344 344 344 343 344 342 341 343 343 343
333 334 335 334 331 331 332 332 331 329 331 336 341 341 341 340 340 340 343 344 344 345 345 345 345 345 344 344 345 346 345 343 344 343 344 345 344 344 343 342 341 343 342
336 336 336 336 334 333 333 332 332 331 333 334 337 339 341 340 341 342 342 342 341 341 342 343 343 344 342 342 344 344 344 345 345 344 343 342 342 343 344 340 341 341 340
339 339 339 338 338 337 336 334 333 333 333 336 338 339 340 342 342 342 342 342 340 339 340 340 340 341 342 342 341 339 343 343 345 345 345 344 343 343 342 335 338 339 337
339 340 340 340 339 337 334 332 331 333 335 336 336 337 338 340 342 342 342 339 335 336 337 337 337 340 341 341 342 343 343 343 344 345 346 346 344 340 336 332 337 332 332
332 338 340 339 335 334 332 328 325 336 337 334 334 335 335 335 335 337 340 339 340 340 340 339 337 337 335 336 340 342 343 343 345 345 342 339 332 330 330 330 328 325 325
332 335 335 334 334 333 333 334 331 331 333 336 334 334 334 331 329 332 337 338 338 337 335 334 335 336 338 340 341 343 343 344 343 339 336 332 330 327 324 320 319 318 315
330 331 331 331 331 331 332 334 333 332 331 332 331 331 330 332 335 335 336 337 336 334 334 335 336 337 339 339 339 339 337 336 333 332 331 327 323 320 320 318 315 314 315
324 325 326 328 327 327 332 331 330 329 330 330 329 330 331 329 329 332 333 333 332 333 333 335 335 336 336 335 334 333 331 330 328 327 325 322 321 318 317 318 317 316 315
323 324 325 327 328 330 329 330 330 329 329 330 330 329 329 329 329 331 332 332 333 333 332 332 332 332 331 331 330 329 327 325 324 323 322 319 317 317 318 317 316 315 314
322 323 325 327 331 331 329 329 329 330 330 328 327 328 329 330 331 332 332 331 331 332 331 330 329 328 328 327 326 324 323 321 319 317 314 314 316 318 320 321 316 316 314
320 322 323 324 327 328 328 329 329 330 327 326 327 326 327 327 327 328 329 330 329 329 328 327 327 326 325 323 323 321 319 317 314 313 315 315 315 316 317 319 320 315 312
320 321 323 325 324 326 329 329 330 329 327 326 325 326 327 326 326 326 326 327 326 326 325 324 323 322 321 319 317 315 313 314 314 314 313 311 312 314 315 317 313 311 310
318 317 318 321 324 325 327 328 331 328 326 325 325 326 327 326 326 325 325 324 323 322 321 320 319 316 315 313 312 313 313 313 313 312 310 309 310 312 313 313 313 312 311
317 318 319 319 321 327 327 327 330 328 326 325 325 326 324 324 323 323 322 321 320 319 318 315 314 314 312 312 312 312 311 311 311 310 310 309 309 312 313 313 312 312 312
318 320 322 324 328 329 326 328 328 327 326 324 324 324 324 323 321 319 319 318 316 314 312 311 311 310 310 309 309 310 309 309 309 309 310 311 311 311 312 311 311 311 311
321 322 322 325 326 327 326 327 328 327 326 324 323 322 322 322 320 319 318 317 317 315 312 310 309 310 310 310 310 309 309 310 310 310 310 310 310 310 311 311 311 311 310
Wind_Speed
23 22 24 21 20 18 16 15 16 16 17 17 17 15 15 15 15 15 14 13 13 14 14 14 12 13 12 11 11 10 8 7 6 8 9 10 10 10 9 9 9 10 9
20 20 21 22 22 21 19 16 17 16 16 15 16 16 15 14 13 15 17 18 17 17 15 16 12 12 14 12 14 13 12 11 8 7 8 11 12 12 11 10 10 11 11
21 20 20 21 19 19 18 16 17 17 18 18 18 19 19 18 17 17 17 18 18 17 15 16 14 15 16 15 14 16 15 14 12 11 8 8 9 12 13 13 13 12 11
17 21 22 19 19 17 16 16 17 17 18 19 22 22 22 21 20 19 19 18 18 18 18 18 17 17 15 14 15 16 15 16 15 14 14 12 12 14 15 14 14 12 11
10 13 12 8 7 14 18 17 17 16 19 20 22 23 24 26 25 23 20 19 20 19 20 20 19 19 18 17 17 17 16 17 17 18 17 16 16 16 15 14 14 14 14
18 16 15 15 15 15 12 13 14 16 21 23 21 23 24 24 26 25 24 23 21 22 22 22 22 22 23 22 20 20 20 20 21 21 20 18 19 18 16 16 16 16 17
14 17 17 16 15 15 17 17 19 15 14 16 20 22 24 23 22 23 26 28 29 28 25 24 24 23 23 22 23 21 23 23 24 23 26 24 21 18 17 19 19 18 17
6 7 9 10 11 11 12 13 13 16 18 22 21 23 25 26 23 21 23 25 26 27 27 26 25 24 24 23 23 25 27 26 26 25 27 25 23 22 20 19 19 19 21
4 5 6 5 5 6 6 7 8 10 14 15 16 21 24 27 24 20 20 23 27 27 27 27 26 27 26 24 25 27 28 29 30 28 27 27 27 25 23 22 23 24 25
4 6 4 1 4 7 9 9 11 13 12 14 17 16 17 23 23 21 20 24 24 24 26 27 27 28 27 26 27 29 32 31 31 30 30 29 27 28 26 25 22 24 26
6 4 3 2 3 6 7 8 11 12 13 14 15 14 15 16 16 20 22 23 23 24 26 26 27 27 26 26 27 29 31 29 32 32 33 32 31 31 31 28 26 24 27
11 10 9 8 7 7 8 10 12 13 12 14 15 15 15 15 18 19 19 20 21 22 22 21 23 22 23 25 26 29 31 31 33 33 34 35 35 36 36 36 31 25 25
11 12 12 12 11 12 13 15 16 14 13 11 11 13 12 13 14 18 22 23 23 25 25 24 23 25 29 31 35 33 30 32 33 35 35 36 37 35 32 24 19 20 22
12 12 13 13 13 15 17 20 18 14 10 12 12 14 15 14 15 17 20 24 25 28 29 28 29 27 27 31 34 33 33 33 33 31 33 37 33 30 23 22 20 19 23
11 10 11 12 15 18 18 15 12 13 13 12 14 15 17 19 19 20 21 22 22 22 24 23 22 22 23 25 25 25 24 22 24 26 27 27 23 26 28 26 27 28 31
9 11 13 15 17 15 14 14 10 12 15 15 17 19 21 21 22 22 21 20 20 21 22 22 21 20 20 20 19 17 17 19 22 25 23 9 13 24 25 27 28 27 27
10 13 16 16 15 14 14 13 13 15 17 19 19 17 21 25 22 20 20 19 17 19 18 16 15 15 15 12 12 12 12 12 13 14 19 22 31 32 30 30 27 26 24
10 13 15 16 16 14 9 13 13 14 15 17 16 20 23 20 13 10 10 11 11 12 12 12 11 10 8 6 6 6 6 10 15 20 25 32 32 33 31 27 26 26 22
10 12 12 13 11 8 10 12 13 14 15 17 19 16 10 7 6 5 7 8 8 7 7 7 5 5 4 4 8 11 15 20 26 30 31 32 30 26 24 23 23 21 19
10 11 11 10 9 10 9 10 11 13 16 13 7 6 3 2 3 4 5 5 5 3 1 1 3 4 6 8 13 19 29 31 31 30 30 28 25 21 18 20 21 18 14
11 12 13 15 12 11 9 10 10 13 9 6 4 3 2 2 2 3 3 4 5 5 6 8 11 15 20 26 28 28 28 28 28 28 23 19 17 16 16 18 18 17 14
16 16 15 14 14 15 11 10 11 10 6 4 3 3 4 5 7 9 11 15 17 19 19 21 22 21 21 23 24 24 25 25 23 21 20 19 19 16 17 20 18 15 15
17 18 18 18 17 14 12 11 10 8 6 8 7 9 11 12 15 18 20 21 20 20 19 19 20 21 21 20 19 19 19 18 19 18 16 15 17 18 18 16 16 15 14
18 20 20 19 17 14 12 12 12 8 14 13 11 14 13 13 13 15 15 17 18 18 17 17 16 16 17 16 15 16 16 16 16 15 15 15 16 17 15 16 14 13 12
20 19 17 14 13 13 13 13 11 13 18 15 12 13 15 12 12 14 14 14 14 15 15 14 13 14 14 15 16 17 17 17 17 16 15 14 15 14 13 12 12 12 13
16 12 8 9 11 11 13 13 12 18 21 13 14 15 14 13 11 11 11 11 11 11 13 14 15 15 18 19 19 18 18 17 17 16 16 15 14 13 12 11 11 11 12
Wind_Direction
234 233 233 233 236 238 242 242 242 242 241 247 240 237 235 244 246 249 250 257 257 264 274 273 267 248 251 251 254 253 255 259 261 270 262 249 253 264 275 269 262 267 277
230 235 234 233 236 241 241 240 235 242 246 242 236 234 239 245 243 252 256 258 262 265 273 274 264 253 251 257 255 257 262 259 256 265 279 271 264 263 270 272 267 264 268
237 237 236 234 235 240 239 242 239 240 246 250 249 246 241 245 252 257 262 260 266 262 265 263 263 256 257 261 262 262 259 257 261 268 264 279 275 275 272 269 265 262 265
232 232 233 241 237 230 233 241 245 249 248 246 248 248 247 246 250 255 257 261 260 257 261 260 261 257 258 264 261 260 258 256 257 266 267 272 277 286 275 269 267 266 263
201 204 201 210 235 246 249 246 246 253 258 256 253 250 248 248 249 251 253 258 259 262 255 254 258 260 264 268 261 259 257 256 260 265 268 271 275 286 283 273 265 264 264
225 221 229 247 257 259 250 239 248 270 261 251 251 253 251 249 250 249 255 251 258 259 258 255 258 264 264 266 262 259 260 260 262 264 267 263 269 277 273 276 266 255 247
221 227 238 255 251 260 263 265 259 255 257 253 253 252 252 251 254 253 249 253 261 259 255 257 261 263 264 265 261 261 260 261 263 271 265 265 264 270 273 271 267 265 254
209 227 237 244 253 259 262 269 260 260 259 268 267 257 250 246 249 255 254 252 256 257 257 257 259 262 264 263 263 263 263 264 263 263 264 262 262 266 269 267 264 254 244
183 220 233 246 260 273 280 272 274 266 276 266 260 263 253 249 246 248 253 255 257 254 253 256 259 262 263 263 262 264 263 263 263 260 263 262 260 263 267 266 253 249 241
202 206 197 270 294 292 284 285 281 272 267 260 269 275 274 258 253 246 248 252 255 250 252 258 262 264 266 265 263 265 265 264 263 262 262 263 264 261 262 261 253 252 240
190 208 217 280 303 311 293 300 297 284 273 270 271 271 266 267 254 250 245 246 250 251 254 255 258 262 261 262 263 262 264 272 268 266 264 264 260 256 255 255 244 241 243
211 220 239 252 265 285 292 299 311 303 284 271 270 271 270 265 254 244 242 252 255 257 258 260 263 261 261 261 262 267 267 265 265 264 261 258 255 255 250 252 239 238 242
245 246 253 249 261 274 285 295 299 295 292 283 284 290 285 277 261 253 249 248 258 259 260 267 274 274 273 273 274 274 272 268 270 265 259 254 254 253 247 236 220 238 234
257 254 253 256 269 280 289 293 284 274 277 272 274 274 277 273 269 265 260 261 264 266 269 274 278 278 274 272 272 271 270 269 271 274 264 257 253 234 225 220 228 198 176
251 251 252 263 278 289 295 303 286 274 266 274 276 279 280 279 275 268 264 264 263 265 267 270 272 276 283 286 285 279 271 265 263 255 256 246 214 199 192 184 167 153 145
245 252 261 272 282 288 292 297 295 274 276 273 275 281 284 288 283 270 264 264 265 270 273 276 279 282 291 284 285 287 271 258 253 245 240 217 228 176 153 134 128 121 113
259 266 272 275 280 286 288 291 291 282 277 282 289 288 294 295 285 267 262 260 264 276 281 281 280 282 280 294 290 287 281 263 241 210 195 181 161 144 136 130 119 117 132
283 280 278 278 280 284 282 286 290 291 291 293 292 292 294 292 286 269 250 254 271 277 279 278 271 275 282 287 282 257 217 175 177 175 159 149 143 137 134 135 130 127 139
302 295 288 283 284 282 291 293 290 292 295 296 297 300 302 293 277 246 244 248 254 257 274 270 268 257 227 197 192 183 170 163 158 146 140 137 133 132 135 142 140 145 152
311 301 294 293 279 273 285 287 289 293 300 301 297 294 287 255 227 224 226 222 234 242 223 158 150 146 157 163 160 147 135 132 131 130 128 130 136 149 155 155 156 164 161
313 301 291 280 270 271 276 283 283 298 296 288 272 258 239 208 211 191 180 155 137 130 127 125 122 129 132 131 131 133 133 132 130 127 130 132 130 136 148 155 164 165 164
318 308 294 280 274 263 257 268 273 294 282 240 187 160 140 129 135 129 124 119 115 111 115 119 122 125 129 132 134 133 132 133 137 137 138 142 143 148 155 158 152 165 159
315 308 297 284 268 259 249 253 263 282 207 166 151 136 128 115 120 121 121 120 120 122 124 127 129 131 134 137 139 142 145 149 149 146 143 148 156 159 161 164 160 160 163
311 304 298 292 256 240 242 246 251 227 182 164 158 149 136 128 127 129 130 134 136 137 139 142 144 146 149 151 155 157 153 151 147 140 141 144 153 149 152 162 167 171 171
317 308 301 296 243 225 232 233 241 198 178 164 159 154 152 144 141 141 141 142 145 147 150 152 153 154 152 152 151 146 141 139 141 144 151 151 156 155 160 163 167 171 182
316 309 303 273 249 241 232 233 234 194 181 171 168 165 161 154 152 152 154 157 160 163 161 156 154 153 149 141 138 139 137 137 140 144 141 142 150 164 172 185 200 200 202